Flag for India Weather past 2 weeks in Gurgaon, Haryana, India

Now
81 °F

Fog.


Feels Like: 86 °F
Forecast: 79 / 96 °F
Wind: 3 mph from Southwest

Location: New Delhi Palam Airport

Current Time: Sep 19, 2014 at 3:23:15 AM

Latest Report: Sep 19, 2014 at 2:00 AM


Visibility: 2 mi

Pressure: 29.71 "Hg

Humidity: 84%

Dew point: 75 °F

Location of GurgaonLocation

Historic Weather in Gurgaon — Graph

°F

Gurgaon temperature yesterday

Maximum temperature yesterday: 95 °F (at 3:00 PM)
Minimum temperature yesterday: 81 °F (at 4:00 AM)
Average temperature yesterday: 87 °F

Past Weeks' High & Low Weather Summary

 TemperatureHumidityPressure
High97 °F (Sep 7, 4:00 PM)100% (Sep 7, 3:30 AM)29.80 "Hg (Sep 7, 3:30 AM)
Low73 °F (Sep 15, 1:30 AM)47% (Sep 17, 5:00 PM)29.50 "Hg (Sep 5, 3:30 AM)
Average85 °F75%29.67 "Hg
* Reported Sep 4 1:30 AM — Sep 19 1:30 AM, Gurgaon, Weather by CustomWeather, © 2014

Note: Actual official high and low records may vary slightly from our data, if they occured in-between our weather recording intervals... More about our weather records

Advertising

Gurgaon weather history for previous 24 hours

 ConditionsComfort  
Time TempWeatherWind HumidityBarometerVisibility
1:30 AM
Sep 19
82 °FFog.No wind79%29.71 "Hg2 mi
1:00 AM84 °FFog.2 mph79%29.71 "Hg2 mi
12:30 AM84 °FHaze.2 mph74%29.71 "Hg2 mi
12:00 AM86 °FHaze.No wind70%29.71 "Hg2 mi
11:30 PM
Sep 18
88 °FHaze.2 mph62%29.71 "Hg2 mi
11:00 PM88 °FHaze.3 mph62%29.71 "Hg2 mi
10:30 PM88 °FHaze.2 mph62%29.71 "Hg2 mi
10:00 PM88 °FHaze.8 mph59%29.68 "Hg2 mi
9:30 PM88 °FHaze.8 mph59%29.68 "Hg2 mi
9:00 PM88 °FHaze.8 mph59%29.68 "Hg2 mi
8:30 PM86 °FHaze.6 mph66%29.68 "Hg2 mi
8:00 PM88 °FHaze.7 mph62%29.68 "Hg2 mi
7:30 PM88 °FHaze.5 mph59%29.65 "Hg2 mi
7:00 PM90 °FHaze.6 mph55%29.65 "Hg3 mi
6:30 PM91 °FHaze.9 mph52%29.65 "Hg3 mi
6:00 PM91 °FHaze.9 mph52%29.65 "Hg3 mi
5:30 PM93 °FHaze.12 mph49%29.65 "Hg3 mi
5:00 PM93 °FHaze.12 mph47%29.65 "Hg3 mi
4:30 PM93 °FHaze.10 mph49%29.65 "Hg3 mi
4:00 PM93 °FHaze.12 mph47%29.65 "Hg3 mi
3:30 PM95 °FHaze.12 mph47%29.65 "Hg3 mi
3:00 PM95 °FHaze.12 mph47%29.65 "Hg3 mi
2:30 PM93 °FHaze.12 mph53%29.65 "Hg3 mi
2:00 PM93 °FHaze.12 mph53%29.65 "Hg3 mi
1:00 PM91 °FHaze.12 mph52%29.68 "Hg3 mi
12:30 PM91 °FHaze.12 mph49%29.71 "Hg3 mi
12:00 PM90 °FHaze.12 mph52%29.71 "Hg3 mi
11:30 AM90 °FHaze.12 mph52%29.71 "Hg2 mi
11:00 AM90 °FHaze.13 mph52%29.71 "Hg2 mi
10:30 AM88 °FHaze.9 mph59%29.74 "Hg2 mi
10:00 AM88 °FHaze.7 mph59%29.74 "Hg2 mi
9:30 AM86 °FHaze.5 mph62%29.74 "Hg2 mi
9:00 AM84 °FHaze.6 mph66%29.74 "Hg2 mi
8:30 AM84 °FHaze.6 mph66%29.74 "Hg2 mi
8:00 AM82 °FHaze.5 mph70%29.71 "Hg2 mi
7:00 AM81 °FFog.5 mph79%29.71 "Hg2 mi
6:30 AM81 °FFog.3 mph79%29.71 "Hg2 mi
6:00 AM81 °FFog.3 mph79%29.68 "Hg1 mi
5:30 AM81 °FFog.3 mph79%29.68 "Hg1 mi
5:00 AM81 °FFog.3 mph79%29.68 "Hg1 mi
4:30 AM81 °FFog.3 mph79%29.65 "Hg1 mi
4:00 AM81 °FHaze.3 mph79%29.65 "Hg1 mi
3:30 AM82 °FHaze.3 mph74%29.65 "Hg1 mi
3:00 AM82 °FHaze.No wind74%29.65 "Hg1 mi
Weather by CustomWeather, © 2014

See weather overviewHow to use our weather pages